Home   Weather   Daegu   Past weeks
Flag for South Korea

Past Weather in Daegu, South Korea — Yesterday and Last 2 Weeks

Now
73 °F

Clear.


Feels Like: 75 °F
Forecast: 87 / 67 °F
Wind: 2 mph from Northwest

Location: Taegu Ab

Current Time: Jun 21, 2019 at 4:48:09 am

Latest Report: Jun 21, 2019 at 4:00 am


Visibility: 10 mi

Pressure: 29.68 "Hg

Humidity: 74%

Dew Point: 64 °F

Location of DaeguLocation

Past Weather in Daegu — Graph

°F

Daegu Temperature Yesterday

Maximum temperature yesterday: 91 °F (at 3:00 pm)
Minimum temperature yesterday: 66 °F (at 5:00 am)
Average temperature yesterday: 80 °F

High & Low Weather Summary for the Past Weeks

 TemperatureHumidityPressure
High91 °F (Jun 20, 3:00 pm)94% (Jun 7, 3:20 am)29.92 "Hg (Jun 7, 3:20 am)
Low59 °F (Jun 9, 5:00 am)29% (Jun 13, 1:00 pm)29.39 "Hg (Jun 15, 4:00 pm)
Average72 °F65%29.74 "Hg
* Reported Jun 6 3:00 am — Jun 21 3:00 am, Daegu. Weather by CustomWeather, © 2019

Note: Actual official high and low records may vary slightly from our data, if they occured in-between our weather recording intervals... More about our weather records

Advertising

Daegu Weather History for the Previous 24 Hours

Scroll right to see more
 ConditionsComfort  
Time TempWeatherWind HumidityBarometerVisibility
3:00 am
Fri, Jun 21
73 °FClear.2 mph74%29.68 "Hg10 mi
2:00 am75 °FClear.3 mph69%29.68 "Hg10 mi
1:00 am77 °FClear.3 mph65%29.68 "Hg10 mi
12:00 am79 °FClear.3 mph61%29.68 "Hg10 mi
11:00 pm
Thu, Jun 20
82 °FClear.6 mph55%29.71 "Hg10 mi
10:00 pm82 °FClear.8 mph55%29.71 "Hg10 mi
9:00 pm84 °FClear.8 mph51%29.68 "Hg10 mi
8:00 pm88 °FClear.7 mph46%29.65 "Hg10 mi
7:00 pm90 °FSunny.6 mph43%29.62 "Hg10 mi
6:00 pm90 °FPartly sunny.5 mph38%29.62 "HgN/A
5:00 pm91 °FPartly sunny.5 mph30%29.62 "HgN/A
4:00 pm90 °FPartly sunny.3 mph36%29.65 "HgN/A
3:00 pm91 °FScattered clouds.8 mph36%29.65 "HgN/A
2:00 pm88 °FScattered clouds.5 mph40%29.65 "HgN/A
1:00 pm84 °FSunny.6 mph45%29.68 "Hg10 mi
12:00 pm84 °FSunny.8 mph48%29.71 "Hg10 mi
11:00 am82 °FPassing clouds.7 mph51%29.71 "HgN/A
10:00 am79 °FPassing clouds.9 mph54%29.74 "HgN/A
9:00 am77 °FScattered clouds.9 mph57%29.74 "Hg6 mi
8:00 am73 °FClear.6 mph69%29.74 "Hg5 mi
7:00 am72 °FClear.3 mph73%29.74 "Hg5 mi
6:00 am70 °FPassing clouds.1 mph78%29.74 "Hg5 mi
5:00 am66 °FClear.5 mph83%29.74 "Hg4 mi
4:00 am70 °FClear.3 mph78%29.74 "Hg6 mi
Weather by CustomWeather, © 2019

See weather overview